SL-14 DEB, 45336

Orbit data source: Space-Track

SL-14 DEB, 45336 is space debris in LEO originally from a launch on Thu, 15 Aug 1991 UTC launched from the Plesetsk Missile And Space Complex (PKMTR). Debris objects in space refer to the collection of defunct objects orbiting the Earth. Examples of debris include non-operational satellites, rocket bodies, and fragments generated from explosions, collisions, or faulty payload assembly.

Loading next visibility...
Identifier
45336, 1991-056CA
Orbit
LEO
Country
Flag of CISCIS
Related business
Manufacturer
Unknown
Mission
Spacecraft
Bus & Motor
Unknown
Mass
Unknown
Launch date (UTC)
1991-08-15 (35 years ago)
Launch vehicle
Unknown
Launch site
Plesetsk Missile And Space Complex (PKMTR)
Object type
Payload
Rocket body
Debris
Shape & HBR
Unknown shape, 0.1 m
Radar Cross Section
Medium (>0.1 m² and <1 m²)

Expand to show TLE details & history
Last TLE update: 13 hours ago

TLE from 13 hours ago
0 SL-14 DEB
1 45336U 91056CA  26257.37506757  .00000781  00000-0  15901-2 0  9998
2 45336  82.5766  46.7008 0055008  94.1885 266.5535 13.31618427317655
Epoch: 2026-09-14T09:00Z
TLE epoch observation values (Epoch: 2026-09-14T09:00:05.838Z)
Latitude
0.00001°
Longitude
-81.67979°
Altitude
1,146.207 km
Speed
7.279 km/s
True Right ascension
03h 06m 48s
True Declination
0° 00' 00"
Sunlit
Object was in full shadow at epoch
Visualization orbit readout
Latitude
Unknown
Longitude
Unknown
Altitude
Unknown
Speed
Unknown
Apparent Right ascension
Unknown
Apparent Declination
Unknown
Sunlit
N/A
Visualization observer readout
Local Sidereal Time
14:25:18
Azimuth
Unknown
Elevation
Unknown
Doppler factor
Unknown
Orbital elements
Apogee altitude
1,179.232 km
Perigee altitude
1,096.544 km
Semi-major axis
7,516.025 km
Eccentricity
0.0055
Inclination
82.5766°
RAAN
46.7008°
Arg. of periapsis
94.1885°
True anomaly
265.92457°
Mean anomaly
266.5535°
Eccentric anomaly
266.23901°
Mean motion
3.33089 °/min
Orbital period
108.08 mins
BSTAR
0.0015901
Loading maneuver chart data...
Computing Atmospheric mass density...
Loading historical data...
Loading historical data...
Loading historical data...
Loading historical data...
Loading historical data...
Loading historical data...
Loading historical data...

Documentation

Showing up to 5 results
|